Location: Alfortville
(48.8058°N, 2.4204°E)
Time: 22:58:08
(UTC+00:00)

SR - Pass Details

Date: 19 April 2026
Orbit: 568 x 852 km, 66.7° (Epoch: 19 May)

Event Time Altitude Azimuth Distance (km) Brightness Sun altitude
Rises 21:48:58 0° 323° (NW) 3,282 ? -24.2°
Reaches altitude 10° 21:51:20 10° 323° (NW) 2,385 ? -24.4°
Maximum altitude 21:56:53 81° 237° (WSW) 848 ? -24.9°
Enters shadow 21:57:40 67° 168° (SSE) 908 ? -24.9°
